Time,B instrument,Bx,By,Bz,sigma B,Ion instrument,Status,Tp_par,Tp_perp,carrot,r_sun,clat,clong,earth_he_angle,n_p,vp_x,vp_y,vp_z,vth_p_par,vth_p_perp
1980-05-25 00:12:28,-1,nan,nan,nan,nan,1,4,nan,nan,1695,0.32145053,-3.0240135,179.8667,347.12061,nan,nan,nan,nan,nan,nan
1980-05-25 00:13:08,-1,nan,nan,nan,nan,1,4,nan,nan,1695,0.32144648,-3.0234928,179.8667,347.12451,nan,nan,nan,nan,nan,nan
1980-05-25 00:13:49,1,-19.3429,28.2571,-23.9143,0.273302,2,1,52653.5,90978.6,1695,0.32144648,-3.0234928,179.85889,347.12451,122.07,269.601,36.8388,-5.41857,29.483,38.755
1980-05-25 00:14:29,1,-19.0667,28.8833,-23.5,0.378961,2,1,57074.7,85205.6,1695,0.32144237,-3.0229721,179.85889,347.12842,127.314,268.777,31.4019,-5.51582,30.6959,37.5052
1980-05-25 00:15:11,1,-17.8571,28.3571,-24.8,0.564963,2,1,42847.5,80091.9,1695,0.32143831,-3.0224514,179.85498,347.13232,117.48,260.697,33.2541,-4.89433,26.5963,36.3624
1980-05-25 00:15:51,1,-18.0,28.6833,-24.55,0.408928,2,1,46727.6,83521.4,1695,0.32143831,-3.0224514,179.84717,347.13232,117.472,268.019,32.5868,-5.19485,27.7744,37.1327
1980-05-25 00:16:32,1,-17.9143,28.5,-24.8571,0.33503,2,1,55744.9,78744.2,1695,0.3214342,-3.0219316,179.84717,347.13623,119.106,268.287,32.9331,-4.42655,30.3362,36.0551
1980-05-25 00:17:12,1,-17.9333,28.2333,-25.0,0.366667,2,1,56405.7,75826.6,1695,0.32143009,-3.0214109,179.84326,347.14014,119.627,269.146,32.0259,-10.9683,30.5154,35.3809
1980-05-25 00:17:53,1,-17.5857,28.0714,-26.2286,0.449943,2,1,49731.7,85231.3,1695,0.32143009,-3.0214109,179.83936,347.14014,128.476,270.283,33.3265,-7.54201,28.6533,37.5109
1980-05-25 00:18:33,1,-17.8429,29.4571,-24.5286,1.34316,2,1,43960.8,72022.0,1695,0.32142603,-3.0208902,179.83545,347.14404,106.713,271.666,33.7265,-3.02951,26.9396,34.4818
1980-05-25 00:19:14,1,-15.6857,31.3429,-24.5286,1.1808,2,1,42291.1,65693.1,1695,0.32142192,-3.0203705,179.83545,347.14795,104.489,270.235,29.8636,-7.0794,26.423,32.932
1980-05-25 00:19:54,1,-15.9833,30.3833,-25.5667,0.452769,2,1,46663.6,66097.7,1695,0.32142192,-3.0203695,179.82764,347.14795,115.204,272.606,32.0471,-2.52744,27.7554,33.0332
1980-05-25 00:20:35,1,-16.5429,28.8,-26.5571,0.426662,2,1,49748.3,76605.7,1695,0.32141787,-3.0198498,179.82373,347.15186,120.386,272.788,32.416,-4.56532,28.6581,35.5622
1980-05-25 00:21:15,1,-16.7714,28.3286,-26.3429,0.478944,2,1,52984.2,75819.9,1695,0.32141376,-3.0193291,179.82349,347.15552,110.424,268.946,33.861,-3.41665,29.5754,35.3793
1980-05-25 00:21:56,1,-16.7714,28.8714,-26.6143,0.627597,2,1,43410.0,61542.5,1695,0.32141376,-3.0193291,179.81567,347.15552,112.35,270.473,32.1885,-1.71465,26.7703,31.8747
1980-05-25 00:22:36,1,-16.4833,29.1667,-26.6333,1.05317,2,1,45073.9,72707.9,1695,0.32140964,-3.0188084,179.81567,347.15942,115.286,269.864,33.7045,-3.07267,27.2785,34.6456
1980-05-25 00:23:17,1,-16.2,29.225,-26.875,0.413824,2,1,47399.0,80460.3,1695,0.32140559,-3.0182886,179.81177,347.16333,116.75,271.662,31.9377,-4.62989,27.9732,36.4459
1980-05-25 00:23:57,1,-17.7333,29.7167,-23.7,0.490181,2,1,61334.8,73251.8,1695,0.32140559,-3.0182877,179.80396,347.16333,110.255,272.042,35.3026,-7.07362,31.8208,34.775
1980-05-25 00:24:38,1,-15.5,27.8714,-27.6714,1.41161,2,1,51573.6,80947.3,1695,0.32140148,-3.0177679,179.80396,347.16724,112.125,277.059,34.6535,-7.95089,29.1791,36.556
1980-05-25 00:25:18,-1,nan,nan,nan,nan,1,4,nan,nan,1695,0.32139742,-3.0172472,179.80005,347.17114,nan,nan,nan,nan,nan,nan
1980-05-25 00:25:59,1,-17.6,27.9222,-25.6,0.595871,1,1,48490.8,77968.8,1695,0.32139736,-3.0172472,179.79614,347.17114,103.572,277.215,33.5403,-2.21838,28.2936,35.8772
1980-05-25 00:26:39,1,-17.65,27.82,-25.8,0.357911,1,1,48924.1,76036.6,1695,0.32139331,-3.0167265,179.79224,347.17505,104.948,278.547,33.8249,-2.08322,28.4197,35.4298
1980-05-25 00:27:20,1,-16.375,28.6583,-25.8333,0.391401,1,1,51825.0,80843.4,1695,0.3213892,-3.0162067,179.78833,347.17896,106.065,277.825,32.7578,-2.64852,29.2501,36.5326
1980-05-25 00:28:00,1,-16.27,28.62,-26.12,0.450888,1,1,49368.8,80538.8,1695,0.32138515,-3.015686,179.78833,347.18286,104.061,278.47,32.6397,-2.16205,28.5486,36.4637
1980-05-25 00:28:41,1,-16.88,28.92,-25.29,1.09458,1,1,50356.6,82449.9,1695,0.32138515,-3.015686,179.78052,347.18286,104.417,277.651,32.2388,-2.69894,28.8328,36.8938
1980-05-25 00:29:21,1,-15.53,28.96,-26.28,0.241039,1,1,52684.2,80710.7,1695,0.32138103,-3.0151653,179.78052,347.18677,104.368,277.534,32.1741,-2.53794,29.4916,36.5026
1980-05-25 00:30:02,1,-16.84,28.6,-25.0,2.38923,1,1,50974.4,79166.5,1695,0.32137698,-3.0146456,179.77661,347.19067,106.129,277.301,30.7593,-0.938823,29.0091,36.1517
1980-05-25 00:30:42,1,-15.72,28.32,-26.36,0.523068,1,1,49589.7,75568.4,1695,0.32137698,-3.0146446,179.77271,347.19067,105.24,278.635,30.3404,-3.93202,28.6124,35.3206
1980-05-25 00:31:23,1,-14.7667,28.9083,-26.1,0.448686,1,1,53464.2,76675.6,1695,0.32137287,-3.0141249,179.76855,347.19434,108.213,279.741,32.4357,-3.32709,29.7091,35.5784
1980-05-25 00:32:03,1,-15.97,29.34,-25.19,0.36524,1,1,48681.2,75363.9,1695,0.32136875,-3.0136042,179.76465,347.19824,104.764,277.041,30.9387,-0.492686,28.3491,35.2728
1980-05-25 00:32:44,1,-16.44,30.38,-24.58,0.575847,1,1,49322.4,69894.5,1695,0.32136875,-3.0136042,179.76074,347.19824,103.202,275.817,31.7563,0.821234,28.5351,33.9687
1980-05-25 00:33:24,1,-16.2,30.06,-24.98,0.409878,1,1,47692.7,70557.7,1695,0.3213647,-3.0130835,179.75684,347.20215,101.519,275.861,32.8044,1.15552,28.0598,34.1295
1980-05-25 00:34:05,1,-16.03,30.14,-25.54,0.216564,1,1,49880.5,72812.0,1695,0.32136059,-3.0125637,179.75684,347.20605,103.637,275.747,31.9762,0.959888,28.6961,34.6704
1980-05-25 00:34:45,1,-15.58,30.82,-24.66,0.570614,1,1,49606.9,71842.2,1695,0.32136059,-3.0125628,179.74902,347.20605,102.095,275.814,32.3654,0.90378,28.6173,34.4388
1980-05-25 00:35:26,1,-16.03,30.66,-24.7,0.546352,1,1,50177.9,72180.4,1695,0.32135653,-3.012043,179.74512,347.20996,103.865,275.094,32.3676,0.790235,28.7815,34.5197
1980-05-25 00:37:27,1,-15.3167,30.6833,-24.7667,0.484768,2,1,52063.6,78715.3,1695,0.32134831,-3.0110016,179.7373,347.21777,127.394,275.715,37.4632,-5.62123,29.3174,36.0485
1980-05-25 00:38:08,1,-17.4286,31.1286,-22.8143,0.59966,2,1,52230.9,65159.6,1695,0.32134426,-3.0104818,179.7334,347.22168,110.473,273.377,34.2103,-4.34341,29.3644,32.798
1980-05-25 00:38:48,1,-18.1429,31.8857,-20.7143,0.509101,2,1,45410.9,70643.2,1695,0.32134426,-3.0104809,179.72559,347.22168,118.091,272.474,38.128,-3.46542,27.3803,34.1502
1980-05-25 00:39:29,1,-18.7429,32.5143,-19.0,0.472941,2,1,55077.1,69210.2,1695,0.32134014,-3.0099611,179.72559,347.22559,123.673,270.679,38.8163,0.945361,30.1539,33.802
1980-05-25 00:40:09,1,-18.3,32.0714,-20.0857,1.26055,2,1,50288.6,64864.5,1695,0.32133609,-3.0094404,179.72168,347.22949,118.881,268.922,35.3759,-0.363139,28.8133,32.7236
1980-05-25 00:40:50,1,-18.8857,32.0,-20.1429,0.583795,2,1,54531.0,66615.3,1695,0.32133609,-3.0094404,179.71777,347.22949,125.523,269.235,36.684,-1.82271,30.004,33.1623
1980-05-25 00:41:30,1,-15.3571,31.5857,-23.7286,1.46287,2,1,48263.7,62334.7,1695,0.32133198,-3.0089197,179.71362,347.23315,111.677,274.184,32.7295,-7.54402,28.2272,32.0792
1980-05-25 00:42:11,1,-16.7571,30.4,-24.4143,1.03825,2,1,54657.9,77676.3,1695,0.32132787,-3.0084,179.71362,347.23706,117.255,272.86,32.3809,-8.87674,30.0389,35.8098
1980-05-25 00:42:51,1,-14.8571,25.7571,-29.3429,2.79007,2,1,54664.7,70323.2,1695,0.32132787,-3.008399,179.70581,347.23706,116.576,279.217,25.7707,-13.3386,30.0408,34.0727
1980-05-25 00:43:32,1,-15.35,30.2833,-24.6667,1.98648,2,1,45542.4,60882.2,1695,0.32132381,-3.0078793,179.7019,347.24097,118.062,272.483,30.4781,-11.9249,27.4199,31.7032
1980-05-25 00:44:12,1,-16.9571,27.3571,-26.6286,0.564241,2,1,58969.5,73801.9,1695,0.3213197,-3.0073586,179.7019,347.24487,129.35,273.993,28.3551,-14.3373,31.2012,34.9053
1980-05-25 00:44:53,1,-21.0571,29.9714,-19.6286,2.28303,2,1,65170.6,70284.2,1695,0.3213197,-3.0073586,179.69409,347.24487,142.886,271.367,30.196,-3.69275,32.8008,34.0633
1980-05-25 00:45:33,1,-20.2333,31.4667,-17.2167,2.40815,2,1,48115.8,47230.9,1695,0.32131565,-3.0068378,179.69409,347.24878,94.9349,270.864,37.995,2.42482,28.1839,27.9236
1980-05-25 00:46:14,1,-20.5429,30.0571,-20.2143,2.7878,2,1,54111.7,55972.9,1695,0.32131153,-3.0063181,179.69019,347.25269,118.791,265.899,34.6546,0.297636,29.8885,30.3981
1980-05-25 00:46:54,1,-18.1333,32.85,-16.9167,3.20668,2,1,45737.6,73382.0,1695,0.32131153,-3.0063171,179.68237,347.25269,134.641,268.72,35.8623,1.63366,27.4786,34.8059
1980-05-25 00:47:35,1,-14.7571,36.4429,-12.4571,4.47998,2,1,59873.6,67042.3,1695,0.32130742,-3.0057974,179.68237,347.25659,133.793,276.91,44.1062,9.01416,31.4395,33.2684
1980-05-25 00:48:15,1,-16.3143,35.4571,-12.8857,3.91434,2,1,37435.3,69337.4,1695,0.32130337,-3.0052767,179.67847,347.2605,128.093,269.432,38.8801,12.0326,24.8598,33.8331
1980-05-25 00:48:56,1,-9.9,38.8429,-6.97143,7.10343,2,1,63765.6,75453.6,1695,0.32130337,-3.0052767,179.67456,347.2605,137.296,290.242,51.1165,18.9273,32.4452,35.2938
1980-05-25 00:49:36,1,-21.1667,30.8167,-18.0667,0.531507,2,1,50584.5,67935.9,1695,0.32129925,-3.004756,179.67065,347.2644,135.275,267.856,36.5888,4.03217,28.8979,33.4894
1980-05-25 00:50:17,1,-20.5286,31.6429,-18.0286,0.457589,2,1,57842.1,59745.6,1695,0.3212952,-3.0042362,179.66675,347.26831,128.224,267.417,33.8569,1.68644,30.9015,31.4059
1980-05-25 00:50:57,1,-19.4667,32.3167,-20.6,1.93312,2,1,55056.1,67449.6,1695,0.32129514,-3.0042353,179.66284,347.26831,127.417,267.212,39.0392,1.9218,30.1482,33.3693
1980-05-25 00:51:38,1,-18.9286,29.1143,-25.3286,0.801529,2,1,51163.3,58876.1,1695,0.32129109,-3.0037155,179.65869,347.27197,115.121,272.149,30.5944,-9.35039,29.0628,31.1765
1980-05-25 00:52:18,1,-18.4667,29.2167,-25.3667,0.345205,2,1,52907.7,60764.2,1695,0.32128698,-3.0031948,179.65869,347.27588,131.5,270.177,26.7578,-8.48277,29.5541,31.6725
1980-05-25 00:52:59,1,-20.4429,31.0143,-20.8857,0.764786,2,1,56379.0,57124.6,1695,0.32128698,-3.0031948,179.65088,347.27588,133.314,266.914,31.0757,-2.23495,30.5082,30.7093
1980-05-25 00:53:39,1,-19.8286,32.1429,-18.4286,1.05869,2,1,57887.0,60742.6,1695,0.32128292,-3.0026741,179.65088,347.27979,129.536,270.149,35.4951,2.94392,30.9135,31.6668
1980-05-25 00:54:20,1,-23.4571,30.4429,-17.7429,0.777489,2,1,50663.2,61119.5,1695,0.32127881,-3.0021544,179.64697,347.28369,131.897,267.082,33.1393,-0.464126,28.9204,31.7649
1980-05-25 00:55:00,1,-21.0143,30.7714,-19.5714,0.897389,2,1,67848.8,67010.3,1695,0.32127476,-3.0016336,179.64307,347.2876,141.153,267.057,30.1151,-2.8094,33.4679,33.2605
1980-05-25 00:55:41,1,-21.5714,31.8429,-18.0857,0.61412,2,1,42814.2,66563.3,1695,0.32127476,-3.0016336,179.63916,347.2876,128.372,267.242,34.5486,-1.55033,26.5859,33.1494
1980-05-25 00:56:21,1,-20.5429,31.4,-18.7143,0.519026,2,1,46024.9,58707.2,1695,0.32127064,-3.0011129,179.63525,347.2915,123.755,268.744,33.5742,0.217297,27.5648,31.1318
1980-05-25 00:57:02,1,-17.5143,30.1,-21.4571,3.3955,2,1,47948.3,56505.2,1695,0.32126653,-3.0005932,179.63525,347.29541,126.851,269.647,36.3579,-1.84406,28.1348,30.5423
1980-05-25 00:57:42,1,-12.8167,24.5833,-29.2333,4.11441,2,1,51385.0,54756.3,1695,0.32126653,-3.0005922,179.62744,347.29541,117.01,285.362,20.9318,-22.23,29.1257,30.0659
1980-05-25 00:58:23,1,-7.58571,22.9,-35.9,0.589015,2,1,51249.2,57409.2,1695,0.32126248,-3.0000725,179.62354,347.29932,105.526,274.89,30.4128,-8.13363,29.0872,30.7857
1980-05-25 00:59:03,1,-10.6833,25.95,-33.7333,1.66015,2,1,50041.0,79542.4,1695,0.32125837,-2.9995518,179.62354,347.30322,107.765,274.915,30.4751,-11.2608,28.7423,36.2374
1980-05-25 00:59:44,1,-12.4857,29.5571,-30.9143,0.458925,2,1,55700.7,72479.9,1695,0.32125837,-2.9995518,179.61572,347.30322,111.278,273.329,34.4581,-8.51184,30.3241,34.5913
1980-05-25 01:00:24,1,-10.5833,29.65,-31.75,0.346009,2,1,47597.5,60408.3,1695,0.32125431,-2.9990311,179.61572,347.30713,112.263,274.942,34.2859,-9.37319,28.0317,31.5796
1980-05-25 01:01:05,1,-10.0714,28.5429,-33.0,1.05231,2,1,46368.5,78462.4,1695,0.32125026,-2.9985094,179.61157,347.31079,120.64,271.389,31.8144,-11.9678,27.6675,35.9906
1980-05-25 01:01:45,1,-11.6,29.45,-31.9,1.04841,2,1,37817.3,54107.5,1695,0.32125026,-2.9985085,179.60767,347.31079,96.7096,271.689,33.5546,-9.04994,24.9864,29.8873
1980-05-25 01:02:26,1,-11.9,29.6,-31.5429,0.27701,2,1,46484.3,69521.8,1695,0.32124621,-2.9979868,179.60376,347.3147,104.842,271.773,35.5373,-8.35259,27.702,33.8781
1980-05-25 01:03:06,1,-12.2571,30.3,-30.8571,0.511899,2,1,39023.9,71997.7,1695,0.32124215,-2.9974642,179.59985,347.3186,108.07,273.83,35.9119,-10.4412,25.3818,34.476
1980-05-25 01:03:47,1,-11.3429,31.5,-29.7571,0.790505,2,1,45441.4,76854.8,1695,0.32124215,-2.9974642,179.59595,347.3186,107.571,277.52,35.2345,-8.87968,27.3895,35.62
1980-05-25 01:04:27,1,-12.8667,30.2833,-30.3,1.25974,2,1,43349.7,71883.5,1695,0.3212381,-2.9969416,179.59204,347.32251,112.123,267.484,33.9892,-8.30988,26.7517,34.4487
1980-05-25 01:05:08,1,-16.3,30.7429,-27.7429,1.16951,2,1,44288.2,68230.5,1695,0.32123405,-2.9964199,179.59204,347.32642,110.652,270.837,33.033,-6.18778,27.0397,33.5619
1980-05-25 01:05:48,1,-17.6833,30.8833,-26.8333,0.726865,2,1,53518.8,66442.8,1695,0.32123405,-2.996419,179.58423,347.32642,109.12,270.935,35.5418,-6.17267,29.7243,33.1194
1980-05-25 01:06:29,1,-16.5286,32.2571,-25.5714,0.595904,2,1,42966.7,72479.0,1695,0.32122999,-2.9958973,179.58032,347.33032,110.93,271.526,34.8578,-5.5148,26.6332,34.5911
1980-05-25 01:07:09,1,-14.95,32.25,-26.9,0.488194,2,1,46521.3,70211.6,1695,0.32122594,-2.9953747,179.58032,347.33423,104.748,274.545,35.2916,-5.11496,27.713,34.0457
1980-05-25 01:07:50,1,-14.7571,32.4,-26.5286,0.387562,2,1,42376.1,70019.0,1695,0.32122594,-2.9953747,179.57251,347.33423,107.106,275.556,39.4341,-5.02001,26.4496,33.999
1980-05-25 01:08:30,1,-15.9,32.8167,-25.55,0.557275,2,1,52138.8,59564.9,1695,0.32122189,-2.9948521,179.57251,347.33813,119.875,271.641,36.1057,-7.90158,29.3385,31.3583
1980-05-25 01:09:11,1,-16.3,32.8143,-25.7,0.390708,2,1,35464.0,53367.5,1695,0.32121783,-2.9943304,179.5686,347.34204,99.4396,270.736,35.7815,-8.60922,24.1965,29.6822
1980-05-25 01:09:51,1,-15.0833,32.75,-26.2167,0.639227,2,1,41632.1,56087.5,1695,0.32121783,-2.9943295,179.56079,347.34204,104.042,273.362,35.7179,-6.34575,26.2164,30.4292
1980-05-25 01:10:32,1,-10.2,33.6286,-26.9857,0.542857,2,1,47563.5,59634.1,1695,0.32121378,-2.9938078,179.56079,347.34595,105.991,267.147,34.921,-9.28086,28.0217,31.3765
1980-05-25 01:11:12,1,-9.45,33.5833,-27.1,0.627606,2,1,52296.7,57193.6,1695,0.32120973,-2.9932852,179.55688,347.34985,102.976,272.896,37.0181,-6.18024,29.3829,30.7278
1980-05-25 01:11:53,1,-9.07143,31.9571,-30.0,0.892143,2,1,39124.2,59123.3,1695,0.32120973,-2.9932852,179.55298,347.34985,121.785,280.411,37.3986,-7.69317,25.4145,31.2419
1980-05-25 01:12:33,1,-7.45,32.6167,-29.4,0.412984,2,1,47559.8,50594.0,1695,0.32120568,-2.9927626,179.54907,347.35376,118.798,279.73,38.8285,-8.47945,28.0206,28.9006
1980-05-25 01:13:14,1,-9.34286,32.3571,-29.0571,0.823878,2,1,45394.0,53980.4,1695,0.32120162,-2.9922409,179.54883,347.35742,100.89,275.964,33.882,-12.151,27.3752,29.8522
1980-05-25 01:13:54,1,-9.18571,33.2286,-28.0143,0.67733,2,1,45915.1,55716.5,1695,0.32120162,-2.99224,179.54102,347.35742,117.155,276.57,35.128,-12.1419,27.5319,30.3284
1980-05-25 01:14:35,1,-10.6833,32.8,-28.5667,1.29368,2,1,42296.0,51994.0,1695,0.32119757,-2.9917183,179.53711,347.36133,112.032,275.55,37.5506,-9.8442,26.4245,29.2978
1980-05-25 01:15:15,1,-10.65,34.9667,-25.7333,0.611237,2,1,37794.7,48983.6,1695,0.32119352,-2.9911957,179.53711,347.36523,110.867,275.637,39.1812,-8.22542,24.9789,28.437
1980-05-25 01:15:56,1,-11.4167,34.8333,-25.4833,1.22134,2,1,41601.8,52542.5,1695,0.32119352,-2.9911957,179.5293,347.36523,109.313,275.07,38.2506,-8.76118,26.2068,29.4519
1980-05-25 01:16:36,1,-12.5833,32.4167,-27.6333,0.751665,2,1,45429.1,54704.5,1695,0.32118946,-2.9906731,179.5293,347.36914,120.952,272.003,32.8124,-10.1755,27.3858,30.0517
1980-05-25 01:17:17,1,-11.7429,34.1,-26.4571,0.859758,2,1,49975.7,58407.0,1695,0.32118541,-2.9901514,179.52539,347.37305,124.743,273.408,35.8356,-9.13552,28.7235,31.0521
1980-05-25 01:17:57,1,-8.2,34.9,-26.3,1.0247,2,1,43678.4,56726.3,1695,0.32118541,-2.9901505,179.51758,347.37305,108.681,272.981,38.716,-7.661,26.8529,30.602
1980-05-25 01:18:38,1,-12.0286,34.7714,-25.4857,1.07152,2,1,43860.2,52979.4,1695,0.32118136,-2.9896288,179.51758,347.37695,109.584,269.876,34.9605,-9.15691,26.9087,29.5741
1980-05-25 01:19:18,1,-13.1,32.0667,-27.3667,0.661648,2,1,40306.7,56868.1,1695,0.3211773,-2.9891062,179.51367,347.38086,112.439,276.266,36.4689,-4.7501,25.7956,30.6402
1980-05-25 01:19:59,1,-12.5286,31.9714,-27.2429,2.00163,2,1,50668.1,48920.6,1695,0.3211773,-2.9891062,179.50977,347.38086,108.025,273.567,33.9517,-5.96818,28.9218,28.4187
1980-05-25 01:20:39,1,-11.3333,33.85,-25.95,1.77404,2,1,44631.9,56362.4,1695,0.32117331,-2.9885836,179.50586,347.38477,108.179,270.795,37.21,-6.36356,27.1444,30.5037
1980-05-25 01:21:20,1,-9.9,33.1286,-26.6571,0.755119,2,1,46996.6,50080.6,1695,0.32116926,-2.9880619,179.50195,347.38867,106.595,269.308,35.9154,-11.1269,27.8542,28.7536
1980-05-25 01:22:00,1,-11.2167,32.9667,-26.5,0.580469,2,1,47018.1,56941.6,1695,0.3211652,-2.9875393,179.50195,347.39258,116.24,271.65,35.5341,-6.09968,27.8606,30.6601
1980-05-25 01:22:41,1,-8.95714,33.3286,-26.6429,0.496929,2,1,56129.7,53972.6,1695,0.3211652,-2.9875393,179.49414,347.39258,118.657,271.037,35.2493,-4.96508,30.4407,29.85
1980-05-25 01:23:21,1,-9.66667,33.55,-26.3667,0.454911,2,1,49150.6,60703.5,1695,0.32116115,-2.9870167,179.49414,347.39648,114.913,272.405,37.1221,-4.0755,28.4854,31.6566
1980-05-25 01:24:02,1,-7.35714,34.4143,-26.9286,0.583095,2,1,49892.7,65466.0,1695,0.3211571,-2.986495,179.49023,347.40039,109.337,270.397,34.7613,-5.00169,28.6996,32.875
1980-05-25 01:24:42,-1,nan,nan,nan,nan,1,4,nan,nan,1695,0.3211571,-2.9864941,179.48633,347.40039,nan,nan,nan,nan,nan,nan
1980-05-25 01:25:23,-1,nan,nan,nan,nan,1,4,nan,nan,1695,0.32115304,-2.9859724,179.48218,347.40405,nan,nan,nan,nan,nan,nan
1980-05-25 01:26:03,1,-10.0222,34.4556,-27.2333,0.973983,1,1,49853.3,60888.8,1695,0.32114899,-2.9854498,179.47827,347.40796,88.209,280.203,29.6745,-0.505863,28.6883,31.7049
1980-05-25 01:26:44,1,-9.28182,35.0273,-26.2455,1.1625,1,1,46848.4,64802.3,1695,0.32114899,-2.9854498,179.47437,347.40796,98.0113,268.526,32.2022,5.41622,27.8103,32.7079
1980-05-25 01:27:24,1,-5.29,33.86,-27.06,0.898721,1,1,54349.0,59481.6,1695,0.32114494,-2.9849272,179.47046,347.41187,98.556,278.438,32.0296,-2.43464,29.9539,31.3364
1980-05-25 01:28:05,1,-7.5,33.19,-27.04,2.85855,1,1,50395.6,60954.9,1695,0.32114089,-2.9844055,179.47046,347.41577,103.985,275.389,33.758,1.55164,28.8439,31.7221
1980-05-25 01:28:45,1,-15.16,33.26,-24.2,1.07833,1,1,49242.1,55556.7,1695,0.32114089,-2.9844046,179.46265,347.41577,94.0197,266.785,31.6829,3.46536,28.5119,30.2849
1980-05-25 01:29:26,1,-14.7455,33.1091,-23.8545,0.667671,1,1,49146.3,57279.3,1695,0.32113683,-2.9838829,179.45874,347.41968,101.542,268.203,31.4186,1.94731,28.4842,30.7508
1980-05-25 01:30:06,1,-14.52,31.34,-26.27,0.9078,1,1,47458.8,58371.3,1695,0.32113278,-2.9833603,179.45874,347.42358,103.025,268.174,30.4836,-1.66526,27.9909,31.0426
1980-05-25 01:30:47,1,-13.3364,31.8818,-26.1909,0.602337,1,1,47167.4,56348.8,1695,0.32113278,-2.9833603,179.45093,347.42358,98.6919,264.368,27.8036,-0.983278,27.9048,30.5
1980-05-25 01:31:27,1,-13.4778,30.9556,-26.7667,2.16687,1,1,50117.9,61029.0,1695,0.32112873,-2.9828377,179.45093,347.42749,103.439,265.466,25.8803,-1.16093,28.7643,31.7414
1980-05-25 01:32:08,1,-13.2636,31.2091,-26.5636,0.867599,1,1,54915.5,61979.6,1695,0.32112467,-2.9823151,179.44702,347.4314,99.7028,266.0,24.0392,-0.599158,30.1096,31.9876
1980-05-25 01:32:48,1,-11.9889,31.9,-26.3556,1.13779,1,1,61530.9,65090.3,1695,0.32112467,-2.9823151,179.43921,347.4314,102.503,269.42,28.9161,1.89057,31.8716,32.7805
1980-05-25 01:33:29,1,-9.36364,30.4364,-29.2455,2.18545,1,1,61737.8,60841.5,1695,0.32112062,-2.9817934,179.43921,347.4353,98.9688,264.009,26.2265,0.0990036,31.9252,31.6926
1980-05-25 01:34:09,1,-7.57778,31.2333,-29.8111,1.5686,1,1,56851.9,66446.8,1695,0.32111657,-2.9812708,179.4353,347.43921,102.956,264.7,24.8312,1.4788,30.6359,33.1204
1980-05-25 01:34:50,1,-9.63636,32.5273,-27.7818,0.860425,1,1,52659.9,65143.1,1695,0.32111657,-2.9812708,179.4314,347.43921,99.7082,268.142,28.1308,3.44836,29.4848,32.7938
1980-05-25 01:35:30,1,-9.75,33.28,-26.82,0.749466,1,1,52489.4,62956.4,1695,0.32111251,-2.9807482,179.42749,347.44312,100.159,269.972,26.4464,0.722229,29.437,32.2387
1980-05-25 01:37:32,1,-7.71429,32.0429,-28.1143,0.541728,2,1,64422.8,67471.6,1695,0.32110441,-2.9797039,179.41553,347.45068,114.861,272.198,33.6191,-5.52941,32.612,33.3748
1980-05-25 01:38:12,1,-9.23333,32.4667,-26.7667,0.83666,2,1,54986.7,52994.0,1695,0.32110035,-2.9791813,179.41553,347.45459,108.314,272.658,34.3673,-4.39117,30.1291,29.5782
1980-05-25 01:38:53,1,-6.57143,33.3714,-26.2286,0.742857,2,1,45537.8,70048.7,1695,0.32110035,-2.9791813,179.40771,347.45459,105.958,271.476,34.1781,-4.25266,27.4185,34.0062
1980-05-25 01:39:33,1,-5.91667,33.0833,-27.0667,0.677003,2,1,66642.4,75524.1,1695,0.3210963,-2.9786587,179.40771,347.4585,120.64,267.824,32.2445,-5.13537,33.1691,35.3102
1980-05-25 01:40:14,1,-8.14286,32.5571,-26.9714,1.10121,2,1,55371.4,85946.3,1695,0.32109231,-2.9781361,179.40381,347.4624,121.054,268.766,32.7202,-1.57424,30.2343,37.6679
1980-05-25 01:40:54,1,-7.46667,33.4667,-26.2,0.926163,2,1,47953.8,70596.7,1695,0.32109231,-2.9781361,179.396,347.4624,110.683,267.522,31.612,-0.236188,28.1365,34.1389
1980-05-25 01:41:35,1,-9.52857,32.0143,-27.6286,1.50319,2,1,55657.5,62756.6,1695,0.32108825,-2.9776144,179.396,347.46631,107.825,268.751,29.2486,-2.17474,30.3124,32.1875
1980-05-25 01:42:15,1,-11.9,31.1,-27.9667,0.662487,2,1,64139.8,72339.0,1695,0.3210842,-2.9770918,179.39209,347.47021,122.218,266.945,32.396,0.148139,32.5403,34.5576
1980-05-25 01:42:56,1,-11.5857,31.6857,-26.8571,0.920736,2,1,59482.2,54838.4,1695,0.3210842,-2.9770918,179.38818,347.47021,114.182,266.968,34.5789,-0.968317,31.3366,30.0885
1980-05-25 01:43:36,1,-17.4167,35.7667,-18.5,1.93484,2,1,50099.6,58843.3,1695,0.32108015,-2.9765692,179.38428,347.47412,112.327,266.398,36.0355,-5.74989,28.7591,31.1678
1980-05-25 01:44:17,1,-18.5714,33.7857,-20.6857,0.724217,2,1,55494.2,56974.8,1695,0.3210761,-2.9760466,179.38037,347.47803,113.313,269.888,33.8847,-3.85434,30.2679,30.669
1980-05-25 01:44:57,1,-16.7667,33.2333,-23.5333,0.571548,2,1,47026.4,63091.5,1695,0.3210761,-2.9760466,179.37646,347.47803,120.505,265.846,36.9082,-5.36552,27.8631,32.2733
1980-05-25 01:45:38,1,-17.9857,30.4,-25.6714,0.972688,2,1,38521.8,61671.2,1695,0.32107204,-2.9755239,179.37256,347.48193,110.107,263.473,38.3808,-3.08561,25.218,31.908
1980-05-25 01:46:18,1,-16.9571,32.4143,-23.3143,1.51159,2,1,53429.8,61543.6,1695,0.32106799,-2.9750023,179.37256,347.48584,115.684,270.384,36.5229,-2.3051,29.6995,31.8749
1980-05-25 01:46:59,1,-17.2167,30.9333,-25.9,2.00257,2,1,47904.2,63364.0,1695,0.32106799,-2.9750023,179.36475,347.48584,112.434,267.988,32.8887,-4.22823,28.1219,32.3429
1980-05-25 01:47:39,1,-19.8167,29.9167,-26.9,0.51908,2,1,50015.1,62528.7,1695,0.32106394,-2.9744797,179.36475,347.48975,106.618,262.959,29.1669,-5.56384,28.7348,32.129
1980-05-25 01:48:20,1,-18.6,31.3,-25.1333,0.667499,2,1,55437.4,60314.0,1695,0.32105988,-2.9739571,179.36084,347.49365,104.911,266.563,33.6221,-4.25384,30.2524,31.5549
1980-05-25 01:49:00,1,-16.9833,32.2667,-26.4333,0.665207,2,1,59600.6,58496.6,1695,0.32105583,-2.9734354,179.35669,347.49731,110.488,268.864,33.442,-4.35448,31.3677,31.0759
1980-05-25 01:49:41,1,-17.4,32.0286,-25.9429,1.38003,2,1,42146.9,50975.1,1695,0.32105583,-2.9734344,179.35278,347.49731,103.037,263.712,33.1848,-5.51772,26.3779,29.0093
1980-05-25 01:50:21,1,-16.25,32.3667,-25.55,0.643342,2,1,51352.2,51649.3,1695,0.32105178,-2.9729128,179.34888,347.50122,93.1192,264.183,35.8038,-0.137956,29.1164,29.2005